Altus, OK

1:34 AM CDT on August 27, 2016 (GMT -0500)
Altus Air Force Base

Weather History for KLTS - November, 2013

Change the Weather History Date:

Monday, November 4, 2013

  Actual Average Record
Temperature  
Mean Temperature 60 °F -  
Max Temperature 73 °F 63 °F 89 °F (2005)
Min Temperature 46 °F 41 °F 28 °F (2011)
Degree Days  
Heating Degree Days 6    
Growing Degree Days 10 (Base 50)    
Moisture  
Dew Point 50 °F    
Average Humidity 74    
Maximum Humidity 100    
Minimum Humidity 43    
Precipitation  
Precipitation 0.00 in - - ()
Sea Level Pressure  
Sea Level Pressure 29.93 in    
Wind  
Wind Speed 11 mph (SE)    
Max Wind Speed 21 mph    
Max Gust Speed 28 mph    
Visibility 10 miles    
Events      
Averages and records for this station are not official NWS values.
T = Trace of Precipitation, MM = Missing Value Source: NWS Daily Summary

Daily Weather History Graph

Daily Weather History Graph

Search for Another Location

Airport or City:

Trip Planner

Search our weather history database for the weather conditions in past years. The results will help you decide how hot, cold, wet, or windy it might be!

Date:

Astronomy

Nov. 04, 2013 Rise Set
Actual Time 7:00 AM CST 5:40 PM CST
Civil Twilight 6:34 AM CST 6:06 PM CST
Nautical Twilight 6:04 AM CST 6:36 PM CST
Astronomical Twilight 5:34 AM CST 7:05 PM CST
Moon 8:10 AM CST (11/4) 6:49 PM CST (11/4)
Length of Visible Light 11h 32m
Length of Day
10h 39m
New Moon, 2% of the Moon is Illuminated
Nov 4
New Moon
Nov 9
First Quarter
Nov 17
Full
Nov 25
Last Quarter
Dec 2
New

Hourly Weather History & Observations

Time (CST) Temp. Windchill Dew Point Humidity Pressure Visibility Wind Dir Wind Speed Gust Speed Precip Events Conditions
12:18 AM 53.6 °F - 44.6 °F 72% 29.92 in 10.0 mi SSE 9.2 mph - N/A   Scattered Clouds
12:58 AM 51.3 °F - 45.3 °F 80% 29.90 in 10.0 mi SE 8.1 mph - N/A   Clear
1:58 AM 50.5 °F - 44.4 °F 80% 29.88 in 10.0 mi SE 8.1 mph - N/A   Clear
2:58 AM 49.3 °F - 43.9 °F 82% 29.89 in 10.0 mi SE 8.1 mph - N/A   Clear
3:58 AM 47.5 °F - 42.6 °F 83% 29.89 in 10.0 mi ESE 6.9 mph - N/A   Clear
4:58 AM 48.7 °F - 43.2 °F 81% 29.89 in 10.0 mi SE 8.1 mph - N/A   Clear
5:58 AM 48.0 °F - 42.8 °F 82% 29.90 in 10.0 mi SE 8.1 mph - N/A   Clear
6:58 AM 46.4 °F 42.4 °F 42.3 °F 85% 29.91 in 10.0 mi SE 8.1 mph - N/A   Clear
7:58 AM 49.3 °F - 43.7 °F 81% 29.93 in 10.0 mi SE 8.1 mph - N/A   Clear
8:58 AM 56.5 °F - 45.0 °F 65% 29.95 in 10.0 mi SSE 12.7 mph - N/A   Clear
9:58 AM 61.9 °F - 45.9 °F 56% 29.98 in 10.0 mi SSW 11.5 mph - N/A   Clear
10:58 AM 66.0 °F - 46.4 °F 49% 29.95 in 10.0 mi SSW 12.7 mph - N/A   Clear
11:58 AM 68.9 °F - 47.7 °F 47% 29.93 in 10.0 mi SW 11.5 mph 17.3 mph N/A   Clear
12:58 PM 70.2 °F - 48.2 °F 46% 29.92 in 10.0 mi SW 11.5 mph - N/A   Clear
1:58 PM 72.0 °F - 48.4 °F 43% 29.91 in 10.0 mi South 11.5 mph - N/A   Clear
2:58 PM 72.3 °F - 48.9 °F 43% 29.89 in 10.0 mi South 5.8 mph - N/A   Clear
3:58 PM 73.0 °F - 50.0 °F 44% 29.89 in 10.0 mi SSE 4.6 mph - N/A   Clear
4:33 PM 73.4 °F - 51.8 °F 47% 29.91 in 10.0 mi ESE 15.0 mph - N/A   Mostly Cloudy
4:58 PM 69.3 °F - 55.2 °F 61% 29.91 in 10.0 mi ESE 18.4 mph 23.0 mph N/A   Overcast
5:58 PM 64.6 °F - 55.4 °F 72% 29.93 in 10.0 mi ESE 18.4 mph 27.6 mph N/A   Mostly Cloudy
6:13 PM 62.6 °F - 55.4 °F 77% 29.94 in 10.0 mi ESE 20.7 mph - N/A   Scattered Clouds
6:58 PM 60.8 °F - 55.4 °F 82% 29.96 in 10.0 mi SE 13.8 mph - N/A   Clear
7:58 PM 59.4 °F - 55.6 °F 87% 29.96 in 10.0 mi SE 15.0 mph - N/A   Mostly Cloudy
8:48 PM 59.0 °F - 55.4 °F 88% 29.98 in 10.0 mi SE 16.1 mph - N/A   Mostly Cloudy
8:58 PM 59.5 °F - 56.1 °F 88% 29.97 in 10.0 mi SE 15.0 mph - N/A   Mostly Cloudy
9:08 PM 59.0 °F - 55.4 °F 88% 29.99 in 10.0 mi SE 13.8 mph 23.0 mph N/A   Scattered Clouds
9:38 PM 59.0 °F - 57.2 °F 94% 29.99 in 10.0 mi SE 15.0 mph 20.7 mph N/A   Mostly Cloudy
9:58 PM 59.2 °F - 56.5 °F 91% 29.97 in 10.0 mi SE 17.3 mph 21.9 mph N/A   Overcast
10:58 PM 58.1 °F - 56.1 °F 93% 29.98 in 10.0 mi SE 12.7 mph - N/A   Mostly Cloudy
11:43 PM 57.2 °F - 57.2 °F 100% 29.99 in 10.0 mi SE 11.5 mph - N/A   Overcast
11:58 PM 57.2 °F - 56.8 °F 99% 29.97 in 10.0 mi SE 11.5 mph - N/A   Overcast